| time (UTC) | temp C | wind direction | speed KPH | gust KPH | rain 1hr cm | rain 24hr cm | rain mn cm | humidity % | barometer mb |
| 20260506025532 | 9 | 41 | 17.7 | 30.6 | 0.00 | 0.00 | 0.00 | 79 | 1011.4 |
| 20260506025027 | 9 | 44 | 16.1 | 29.0 | 0.00 | 0.00 | 0.00 | 79 | 1011.5 |
| 20260506024547 | 9 | 5 | 12.9 | 29.0 | 0.00 | 0.00 | 0.00 | 79 | 1011.3 |
| 20260506024029 | 9 | 17 | 17.7 | 29.0 | 0.00 | 0.00 | 0.00 | 79 | 1011.1 |
| 20260506023527 | 9 | 31 | 17.7 | 35.4 | 0.00 | 0.00 | 0.00 | 79 | 1010.9 |
| 20260506023038 | 9 | 22 | 19.3 | 35.4 | 0.00 | 0.00 | 0.00 | 79 | 1010.7 |
| 20260506022532 | 10 | 350 | 20.9 | 32.2 | 0.00 | 0.00 | 0.00 | 80 | 1010.7 |
| 20260506022027 | 10 | 42 | 14.5 | 24.1 | 0.00 | 0.00 | 0.00 | 80 | 1010.7 |
| 20260506021540 | 10 | 32 | 12.9 | 29.0 | 0.00 | 0.00 | 0.00 | 80 | 1010.9 |
| 20260506021030 | 10 | 19 | 14.5 | 30.6 | 0.00 | 0.00 | 0.00 | 80 | 1010.6 |
| 20260506020529 | 10 | 20 | 19.3 | 30.6 | 0.00 | 0.00 | 0.00 | 80 | 1010.5 |
| 20260506020040 | 10 | 30 | 17.7 | 35.4 | 0.00 | 0.00 | 0.00 | 79 | 1010.5 |
| 20260506015528 | 10 | 22 | 20.9 | 35.4 | 0.00 | 0.00 | 0.00 | 79 | 1010.6 |
| 20260506015030 | 10 | 36 | 20.9 | 33.8 | 0.00 | 0.00 | 0.00 | 79 | 1010.5 |
| 20260506014538 | 10 | 341 | 20.9 | 33.8 | 0.00 | 0.00 | 0.00 | 79 | 1010.2 |
| 20260506014027 | 10 | 23 | 19.3 | 32.2 | 0.00 | 0.00 | 0.00 | 79 | 1010.3 |
| 20260506013527 | 10 | 26 | 22.5 | 32.2 | 0.00 | 0.00 | 0.00 | 79 | 1010.5 |
| 20260506013038 | 10 | 352 | 16.1 | 30.6 | 0.00 | 0.00 | 0.00 | 78 | 1010.4 |
| 20260506012527 | 10 | 35 | 12.9 | 30.6 | 0.00 | 0.00 | 0.00 | 78 | 1010.3 |
| 20260506012028 | 10 | 31 | 17.7 | 35.4 | 0.00 | 0.00 | 0.00 | 78 | 1010.1 |
| 20260506011602 | 10 | 38 | 19.3 | 35.4 | 0.00 | 0.00 | 0.00 | 77 | 1010.1 |
| 20260506011027 | 10 | 12 | 20.9 | 35.4 | 0.00 | 0.00 | 0.00 | 76 | 1009.9 |
| 20260506010530 | 10 | 21 | 14.5 | 27.4 | 0.00 | 0.00 | 0.00 | 76 | 1010.0 |
| 20260506010041 | 10 | 19 | 14.5 | 27.4 | 0.00 | 0.00 | 0.00 | 76 | 1009.9 |
| 20260506005529 | 10 | 28 | 16.1 | 27.4 | 0.00 | 0.00 | 0.00 | 75 | 1009.7 |
| 20260506005029 | 10 | 36 | 16.1 | 27.4 | 0.00 | 0.00 | 0.00 | 75 | 1009.7 |
| 20260506004556 | 10 | 5 | 14.5 | 27.4 | 0.00 | 0.00 | 0.00 | 75 | 1009.8 |
| 20260506004028 | 10 | 344 | 16.1 | 30.6 | 0.00 | 0.00 | 0.00 | 75 | 1009.4 |
| 20260506003530 | 10 | 352 | 17.7 | 30.6 | 0.00 | 0.00 | 0.00 | 75 | 1009.2 |
| 20260506003038 | 10 | 46 | 16.1 | 29.0 | 0.00 | 0.00 | 0.00 | 75 | 1009.1 |
| 20260506002530 | 11 | 344 | 16.1 | 32.2 | 0.00 | 0.00 | 0.00 | 75 | 1009.2 |
| 20260506002031 | 11 | 25 | 17.7 | 32.2 | 0.00 | 0.00 | 0.00 | 75 | 1009.1 |
| 20260506001545 | 11 | 38 | 14.5 | 27.4 | 0.00 | 0.00 | 0.00 | 75 | 1009.3 |
| 20260506001030 | 11 | 330 | 14.5 | 32.2 | 0.00 | 0.00 | 0.00 | 76 | 1009.1 |
| 20260506000529 | 11 | 13 | 16.1 | 32.2 | 0.00 | 0.00 | 0.00 | 76 | 1009.0 |
| 20260506000110 | 11 | 33 | 20.9 | 32.2 | 0.00 | 0.00 | 0.00 | 76 | 1008.9 |
| 20260505235529 | 11 | 337 | 17.7 | 27.4 | 0.00 | 0.00 | 0.00 | 75 | 1009.0 |
| 20260505235030 | 11 | 14 | 14.5 | 27.4 | 0.00 | 0.00 | 0.00 | 76 | 1009.2 |
| 20260505234546 | 11 | 352 | 14.5 | 27.4 | 0.00 | 0.00 | 0.00 | 76 | 1009.1 |
| 20260505234031 | 11 | 360 | 16.1 | 27.4 | 0.00 | 0.00 | 0.00 | 75 | 1008.9 |
| 20260505233532 | 11 | 22 | 16.1 | 27.4 | 0.00 | 0.00 | 0.00 | 75 | 1008.9 |
| 20260505233038 | 11 | 318 | 14.5 | 27.4 | 0.00 | 0.00 | 0.00 | 76 | 1008.8 |
| 20260505232529 | 11 | 15 | 12.9 | 30.6 | 0.00 | 0.00 | 0.00 | 75 | 1009.0 |
| 20260505232029 | 11 | 360 | 16.1 | 30.6 | 0.00 | 0.00 | 0.00 | 75 | 1009.1 |
| 20260505231538 | 11 | 340 | 19.3 | 30.6 | 0.00 | 0.00 | 0.00 | 75 | 1008.8 |
| 20260505231031 | 11 | 16 | 16.1 | 27.4 | 0.00 | 0.00 | 0.00 | 75 | 1009.1 |
| 20260505230530 | 11 | 19 | 14.5 | 27.4 | 0.00 | 0.00 | 0.00 | 75 | 1008.8 |
| 20260505230100 | 11 | 21 | 12.9 | 27.4 | 0.00 | 0.00 | 0.00 | 75 | 1008.9 |
| 20260505225530 | 11 | 15 | 14.5 | 29.0 | 0.00 | 0.00 | 0.00 | 75 | 1008.8 |
| 20260505225030 | 11 | 34 | 16.1 | 29.0 | 0.00 | 0.00 | 0.00 | 75 | 1009.0 |
| 20260505224542 | 11 | 23 | 12.9 | 29.0 | 0.00 | 0.00 | 0.00 | 76 | 1008.7 |
| 20260505224030 | 11 | 30 | 17.7 | 29.0 | 0.00 | 0.00 | 0.00 | 75 | 1008.7 |
| 20260505223529 | 11 | 28 | 16.1 | 29.0 | 0.00 | 0.00 | 0.00 | 76 | 1008.6 |
| 20260505223039 | 11 | 20 | 19.3 | 29.0 | 0.00 | 0.00 | 0.00 | 75 | 1008.8 |
| 20260505222530 | 12 | 25 | 16.1 | 30.6 | 0.00 | 0.00 | 0.00 | 75 | 1008.9 |
| 20260505222029 | 12 | 29 | 17.7 | 30.6 | 0.00 | 0.00 | 0.00 | 75 | 1008.8 |
| 20260505221538 | 12 | 360 | 14.5 | 30.6 | 0.00 | 0.00 | 0.00 | 75 | 1008.7 |
| 20260505221030 | 12 | 300 | 17.7 | 30.6 | 0.00 | 0.00 | 0.00 | 74 | 1008.6 |
| 20260505220530 | 12 | 346 | 16.1 | 30.6 | 0.00 | 0.00 | 0.00 | 74 | 1008.5 |
| 20260505220045 | 12 | 360 | 16.1 | 30.6 | 0.00 | 0.00 | 0.00 | 74 | 1008.5 |
| 20260505215532 | 12 | 360 | 16.1 | 30.6 | 0.00 | 0.00 | 0.00 | 75 | 1008.2 |
| 20260505215028 | 12 | 24 | 16.1 | 27.4 | 0.00 | 0.00 | 0.00 | 75 | 1007.9 |
| 20260505214540 | 12 | 31 | 16.1 | 27.4 | 0.00 | 0.00 | 0.00 | 75 | 1007.7 |
| 20260505214027 | 12 | 18 | 16.1 | 25.7 | 0.00 | 0.00 | 0.00 | 75 | 1007.8 |
| 20260505213527 | 12 | 30 | 14.5 | 25.7 | 0.00 | 0.00 | 0.00 | 76 | 1007.8 |
| 20260505213040 | 12 | 352 | 16.1 | 25.7 | 0.00 | 0.00 | 0.00 | 77 | 1007.9 |
| 20260505212527 | 12 | 323 | 12.9 | 25.7 | 0.00 | 0.00 | 0.00 | 77 | 1008.1 |
| 20260505212027 | 12 | 41 | 16.1 | 25.7 | 0.00 | 0.00 | 0.00 | 77 | 1007.9 |
| 20260505211544 | 12 | 18 | 14.5 | 30.6 | 0.00 | 0.00 | 0.00 | 77 | 1008.1 |
| 20260505211027 | 12 | 5 | 16.1 | 30.6 | 0.00 | 0.00 | 0.00 | 77 | 1008.3 |
| 20260505210528 | 12 | 9 | 19.3 | 30.6 | 0.00 | 0.00 | 0.00 | 78 | 1007.6 |
| 20260505210045 | 12 | 336 | 11.3 | 32.2 | 0.00 | 0.00 | 0.00 | 79 | 1007.5 |
| 20260505205530 | 12 | 336 | 17.7 | 32.2 | 0.00 | 0.00 | 0.00 | 78 | 1007.6 |
| 20260505205030 | 12 | 355 | 19.3 | 37.0 | 0.00 | 0.00 | 0.00 | 78 | 1007.5 |
| 20260505204549 | 12 | 23 | 20.9 | 37.0 | 0.00 | 0.00 | 0.00 | 79 | 1007.5 |
| 20260505204027 | 12 | 27 | 20.9 | 37.0 | 0.00 | 0.00 | 0.00 | 79 | 1007.5 |
| 20260505203528 | 12 | 23 | 16.1 | 33.8 | 0.00 | 0.00 | 0.00 | 79 | 1007.3 |
| 20260505203053 | 12 | 5 | 19.3 | 33.8 | 0.00 | 0.00 | 0.00 | 79 | 1007.2 |
| 20260505202527 | 12 | 341 | 19.3 | 37.0 | 0.00 | 0.00 | 0.00 | 79 | 1007.1 |
| 20260505202027 | 12 | 352 | 19.3 | 37.0 | 0.00 | 0.00 | 0.00 | 79 | 1007.3 |
| 20260505201546 | 12 | 15 | 17.7 | 33.8 | 0.00 | 0.00 | 0.00 | 79 | 1007.6 |
| 20260505201029 | 13 | 319 | 17.7 | 33.8 | 0.00 | 0.00 | 0.00 | 78 | 1007.8 |
| 20260505200531 | 13 | 51 | 14.5 | 30.6 | 0.00 | 0.00 | 0.00 | 78 | 1007.5 |
| 20260505200038 | 13 | 323 | 16.1 | 30.6 | 0.00 | 0.00 | 0.00 | 78 | 1007.3 |
| 20260505195526 | 13 | 330 | 16.1 | 27.4 | 0.00 | 0.00 | 0.00 | 78 | 1007.4 |
| 20260505195027 | 13 | 339 | 14.5 | 29.0 | 0.00 | 0.00 | 0.00 | 78 | 1007.4 |
| 20260505194552 | 13 | 360 | 19.3 | 35.4 | 0.00 | 0.00 | 0.00 | 77 | 1007.0 |
| 20260505194028 | 13 | 34 | 16.1 | 37.0 | 0.00 | 0.00 | 0.00 | 77 | 1006.8 |
| 20260505193527 | 13 | 20 | 19.3 | 37.0 | 0.00 | 0.00 | 0.00 | 77 | 1006.7 |
| 20260505193038 | 13 | 345 | 22.5 | 37.0 | 0.00 | 0.00 | 0.00 | 77 | 1006.6 |
| 20260505192527 | 13 | 360 | 16.1 | 30.6 | 0.00 | 0.00 | 0.00 | 77 | 1006.6 |
| 20260505192027 | 13 | 13 | 17.7 | 30.6 | 0.00 | 0.00 | 0.00 | 78 | 1006.9 |
| 20260505191552 | 13 | 352 | 17.7 | 30.6 | 0.00 | 0.00 | 0.00 | 78 | 1007.0 |
| 20260505191028 | 13 | 355 | 16.1 | 35.4 | 0.00 | 0.00 | 0.00 | 78 | 1006.9 |
| 20260505190531 | 13 | 333 | 14.5 | 35.4 | 0.00 | 0.00 | 0.00 | 78 | 1006.8 |
| 20260505190043 | 13 | 20 | 20.9 | 37.0 | 0.00 | 0.00 | 0.00 | 78 | 1006.7 |
| 20260505185527 | 13 | 342 | 20.9 | 37.0 | 0.00 | 0.00 | 0.00 | 79 | 1006.3 |
| 20260505185029 | 13 | 5 | 20.9 | 37.0 | 0.00 | 0.00 | 0.00 | 78 | 1006.1 |
| 20260505184540 | 13 | 5 | 19.3 | 37.0 | 0.00 | 0.00 | 0.00 | 79 | 1006.5 |
| 20260505184029 | 14 | 335 | 19.3 | 33.8 | 0.00 | 0.00 | 0.00 | 78 | 1006.6 |
| 20260505183529 | 14 | 337 | 20.9 | 32.2 | 0.00 | 0.00 | 0.00 | 78 | 1006.7 |
| 20260505183040 | 14 | 67 | 14.5 | 30.6 | 0.00 | 0.00 | 0.00 | 79 | 1006.7 |
| 20260505182527 | 14 | 338 | 17.7 | 30.6 | 0.00 | 0.00 | 0.00 | 79 | 1006.5 |
| 20260505182027 | 14 | 12 | 17.7 | 32.2 | 0.00 | 0.00 | 0.00 | 80 | 1006.4 |
| 20260505181539 | 14 | 360 | 19.3 | 32.2 | 0.00 | 0.00 | 0.00 | 79 | 1006.4 |
| 20260505181028 | 14 | 11 | 17.7 | 33.8 | 0.00 | 0.00 | 0.00 | 79 | 1006.2 |
| 20260505180529 | 14 | 343 | 14.5 | 33.8 | 0.00 | 0.00 | 0.00 | 79 | 1006.0 |
| 20260505180046 | 14 | 325 | 17.7 | 35.4 | 0.00 | 0.00 | 0.00 | 79 | 1006.1 |
| 20260505175527 | 14 | 311 | 16.1 | 35.4 | 0.00 | 0.00 | 0.00 | 81 | 1005.9 |
| 20260505175027 | 15 | 348 | 17.7 | 32.2 | 0.00 | 0.00 | 0.00 | 81 | 1005.8 |
| 20260505174541 | 15 | 343 | 19.3 | 37.0 | 0.00 | 0.00 | 0.00 | 81 | 1005.7 |
| 20260505174029 | 15 | 360 | 22.5 | 37.0 | 0.00 | 0.00 | 0.00 | 81 | 1005.6 |
| 20260505173531 | 15 | 347 | 22.5 | 37.0 | 0.00 | 0.00 | 0.00 | 80 | 1005.6 |
| 20260505173307 | 15 | 360 | 20.9 | 35.4 | 0.00 | 0.00 | 0.00 | 79 | 1005.5 |
| 20260505172529 | 15 | 360 | 17.7 | 32.2 | 0.00 | 0.00 | 0.00 | 79 | 1005.7 |
| 20260505172027 | 15 | 5 | 16.1 | 32.2 | 0.00 | 0.00 | 0.00 | 80 | 1005.7 |
| 20260505171556 | 15 | 317 | 16.1 | 37.0 | 0.00 | 0.00 | 0.00 | 79 | 1005.6 |
| 20260505171027 | 15 | 321 | 17.7 | 38.6 | 0.00 | 0.00 | 0.00 | 79 | 1005.5 |
| 20260505170527 | 15 | 344 | 22.5 | 38.6 | 0.00 | 0.00 | 0.00 | 78 | 1005.3 |
| 20260505170037 | 16 | 355 | 17.7 | 37.0 | 0.00 | 0.00 | 0.00 | 78 | 1005.1 |
| 20260505165527 | 16 | 26 | 22.5 | 40.2 | 0.00 | 0.00 | 0.00 | 77 | 1004.8 |
| 20260505165027 | 16 | 319 | 19.3 | 40.2 | 0.00 | 0.00 | 0.00 | 78 | 1004.8 |
| 20260505164542 | 16 | 298 | 24.1 | 40.2 | 0.00 | 0.00 | 0.00 | 77 | 1004.7 |
| 20260505164027 | 16 | 355 | 24.1 | 40.2 | 0.00 | 0.00 | 0.00 | 77 | 1004.5 |
| 20260505163527 | 17 | 315 | 20.9 | 40.2 | 0.00 | 0.00 | 0.00 | 77 | 1004.2 |
| 20260505163041 | 17 | 313 | 19.3 | 41.8 | 0.00 | 0.00 | 0.00 | 78 | 1004.1 |
| 20260505162526 | 17 | 303 | 24.1 | 41.8 | 0.00 | 0.00 | 0.00 | 77 | 1004.0 |
| 20260505162028 | 18 | 309 | 24.1 | 37.0 | 0.00 | 0.00 | 0.00 | 76 | 1004.0 |
| 20260505161538 | 18 | 28 | 24.1 | 37.0 | 0.00 | 0.00 | 0.00 | 76 | 1003.7 |
| 20260505161030 | 18 | 309 | 20.9 | 40.2 | 0.00 | 0.00 | 0.00 | 76 | 1003.5 |
| 20260505160529 | 19 | 332 | 19.3 | 43.5 | 0.00 | 0.00 | 0.00 | 75 | 1003.3 |
| 20260505153044 | 22 | 253 | 4.8 | 9.7 | 0.00 | 0.00 | 0.00 | 71 | 1002.0 |
| 20260505152527 | 22 | 279 | 3.2 | 11.3 | 0.00 | 0.00 | 0.00 | 71 | 1002.1 |
| 20260505152030 | 22 | 238 | 4.8 | 11.3 | 0.00 | 0.00 | 0.00 | 72 | 1001.9 |
| 20260505151540 | 22 | 249 | 3.2 | 8.0 | 0.00 | 0.00 | 0.00 | 72 | 1001.9 |
| 20260505151030 | 22 | 303 | 1.6 | 8.0 | 0.00 | 0.00 | 0.00 | 71 | 1001.9 |
| 20260505150530 | 22 | 288 | 1.6 | 4.8 | 0.00 | 0.00 | 0.00 | 72 | 1001.9 |
| 20260505140528 | 22 | 248 | 6.4 | 12.9 | 0.00 | 0.00 | 0.00 | 74 | 1001.3 |
| 20260505125030 | 21 | 229 | 6.4 | 19.3 | 0.00 | 0.00 | 0.00 | 78 | 1000.6 |
| 20260505124559 | 21 | 175 | 6.4 | 19.3 | 0.00 | 0.00 | 0.00 | 78 | 1000.5 |
| 20260505124027 | 21 | 200 | 9.7 | 20.9 | 0.00 | 0.00 | 0.00 | 78 | 1000.5 |
| 20260505123529 | 21 | 206 | 9.7 | 20.9 | 0.00 | 0.00 | 0.00 | 78 | 1000.4 |
| 20260505123100 | 21 | 173 | 11.3 | 24.1 | 0.00 | 0.00 | 0.00 | 79 | 1000.3 |
| 20260505122529 | 21 | 220 | 12.9 | 24.1 | 0.00 | 0.00 | 0.00 | 79 | 1000.1 |
| 20260505122030 | 21 | 206 | 14.5 | 30.6 | 0.00 | 0.00 | 0.00 | 79 | 999.9 |
| 20260505121610 | 21 | 202 | 16.1 | 30.6 | 0.00 | 0.00 | 0.00 | 79 | 999.7 |
| 20260505121030 | 21 | 165 | 17.7 | 30.6 | 0.00 | 0.00 | 0.00 | 79 | 999.6 |
| 20260505120526 | 21 | 165 | 17.7 | 35.4 | 0.00 | 0.00 | 0.00 | 78 | 999.5 |
| 20260505120038 | 21 | 198 | 17.7 | 35.4 | 0.00 | 0.00 | 0.00 | 78 | 999.5 |
| 20260505115530 | 21 | 184 | 20.9 | 33.8 | 0.00 | 0.00 | 0.00 | 78 | 999.5 |
| 20260505115029 | 21 | 200 | 16.1 | 35.4 | 0.00 | 0.00 | 0.00 | 78 | 999.5 |
| 20260505114538 | 21 | 173 | 17.7 | 35.4 | 0.00 | 0.00 | 0.00 | 78 | 999.5 |
| 20260505114029 | 21 | 225 | 19.3 | 30.6 | 0.00 | 0.00 | 0.00 | 78 | 999.3 |
| 20260505113526 | 21 | 219 | 17.7 | 38.6 | 0.00 | 0.00 | 0.00 | 78 | 999.2 |
| 20260505113046 | 21 | 190 | 22.5 | 38.6 | 0.00 | 0.00 | 0.00 | 77 | 999.1 |
| 20260505112530 | 21 | 215 | 19.3 | 30.6 | 0.00 | 0.00 | 0.00 | 77 | 999.2 |
| 20260505112027 | 21 | 191 | 22.5 | 30.6 | 0.00 | 0.00 | 0.00 | 77 | 999.1 |
| 20260505111545 | 21 | 208 | 17.7 | 30.6 | 0.00 | 0.00 | 0.00 | 77 | 999.0 |
| 20260505111027 | 21 | 184 | 19.3 | 30.6 | 0.00 | 0.00 | 0.00 | 77 | 999.0 |
| 20260505110530 | 21 | 205 | 16.1 | 30.6 | 0.00 | 0.00 | 0.00 | 76 | 999.1 |
| 20260505102030 | 21 | 203 | 19.3 | 32.2 | 0.00 | 0.00 | 0.00 | 76 | 999.1 |
| 20260505101543 | 21 | 183 | 16.1 | 32.2 | 0.00 | 0.00 | 0.00 | 76 | 999.0 |
| 20260505101030 | 21 | 178 | 17.7 | 29.0 | 0.00 | 0.00 | 0.00 | 76 | 999.0 |
| 20260505100527 | 21 | 198 | 19.3 | 32.2 | 0.00 | 0.00 | 0.00 | 76 | 998.9 |
| 20260505100054 | 21 | 200 | 19.3 | 33.8 | 0.00 | 0.00 | 0.00 | 76 | 998.9 |
| 20260505095526 | 21 | 220 | 17.7 | 33.8 | 0.00 | 0.00 | 0.00 | 76 | 998.8 |
| 20260505095029 | 21 | 200 | 17.7 | 35.4 | 0.00 | 0.00 | 0.00 | 76 | 998.9 |
| 20260505094542 | 21 | 197 | 19.3 | 40.2 | 0.00 | 0.00 | 0.00 | 76 | 998.9 |
| 20260505094027 | 21 | 186 | 19.3 | 40.2 | 0.00 | 0.00 | 0.00 | 75 | 998.9 |
| 20260505093529 | 22 | 197 | 22.5 | 35.4 | 0.00 | 0.00 | 0.00 | 75 | 998.9 |
| 20260505093037 | 22 | 165 | 19.3 | 35.4 | 0.00 | 0.00 | 0.00 | 75 | 999.0 |
| 20260505092528 | 22 | 219 | 22.5 | 35.4 | 0.00 | 0.00 | 0.00 | 75 | 999.0 |
| 20260505092027 | 22 | 180 | 20.9 | 35.4 | 0.00 | 0.00 | 0.00 | 75 | 999.1 |
| 20260505091607 | 22 | 175 | 22.5 | 35.4 | 0.00 | 0.00 | 0.00 | 75 | 999.1 |
| 20260505091027 | 22 | 202 | 19.3 | 35.4 | 0.00 | 0.00 | 0.00 | 75 | 999.1 |
| 20260505090529 | 22 | 194 | 20.9 | 35.4 | 0.00 | 0.00 | 0.00 | 74 | 999.2 |
| 20260505090053 | 22 | 192 | 19.3 | 38.6 | 0.00 | 0.00 | 0.00 | 74 | 999.2 |
| 20260505085527 | 22 | 197 | 22.5 | 38.6 | 0.00 | 0.00 | 0.00 | 74 | 999.3 |
| 20260505085032 | 22 | 189 | 20.9 | 38.6 | 0.00 | 0.00 | 0.00 | 74 | 999.2 |
| 20260505084543 | 22 | 196 | 19.3 | 38.6 | 0.00 | 0.00 | 0.00 | 74 | 999.3 |
| 20260505084029 | 22 | 202 | 19.3 | 37.0 | 0.00 | 0.00 | 0.00 | 74 | 999.2 |
| 20260505083526 | 22 | 173 | 20.9 | 32.2 | 0.00 | 0.00 | 0.00 | 74 | 999.3 |
| 20260505083048 | 22 | 196 | 17.7 | 37.0 | 0.00 | 0.00 | 0.00 | 74 | 999.3 |
| 20260505082532 | 22 | 193 | 22.5 | 43.5 | 0.00 | 0.00 | 0.00 | 74 | 999.5 |
| 20260505082027 | 22 | 205 | 20.9 | 43.5 | 0.00 | 0.00 | 0.00 | 74 | 999.7 |
| 20260505081543 | 22 | 206 | 20.9 | 37.0 | 0.00 | 0.00 | 0.00 | 74 | 999.6 |
| 20260505081027 | 22 | 190 | 19.3 | 37.0 | 0.00 | 0.00 | 0.00 | 74 | 999.6 |
| 20260505080533 | 22 | 212 | 17.7 | 37.0 | 0.00 | 0.00 | 0.00 | 74 | 999.6 |
| 20260505080047 | 22 | 208 | 17.7 | 38.6 | 0.00 | 0.00 | 0.00 | 74 | 999.7 |
| 20260505075531 | 22 | 175 | 20.9 | 41.8 | 0.00 | 0.00 | 0.00 | 73 | 999.7 |
| 20260505075031 | 22 | 186 | 25.7 | 41.8 | 0.00 | 0.00 | 0.00 | 73 | 999.7 |
| 20260505074541 | 22 | 171 | 20.9 | 40.2 | 0.00 | 0.00 | 0.00 | 73 | 999.7 |
| 20260505074030 | 22 | 186 | 25.7 | 40.2 | 0.00 | 0.00 | 0.00 | 73 | 999.8 |
| 20260505073529 | 22 | 194 | 19.3 | 37.0 | 0.00 | 0.00 | 0.00 | 73 | 999.8 |
| 20260505073047 | 22 | 173 | 20.9 | 37.0 | 0.00 | 0.00 | 0.00 | 73 | 999.9 |
| 20260505072528 | 22 | 208 | 19.3 | 35.4 | 0.00 | 0.00 | 0.00 | 73 | 1000.0 |
| 20260505072030 | 22 | 201 | 20.9 | 35.4 | 0.00 | 0.00 | 0.00 | 73 | 1000.1 |
| 20260505071545 | 22 | 168 | 19.3 | 45.1 | 0.00 | 0.00 | 0.00 | 73 | 1000.2 |
| 20260505071027 | 22 | 205 | 20.9 | 45.1 | 0.00 | 0.00 | 0.00 | 74 | 1000.2 |
| 20260505070530 | 22 | 173 | 22.5 | 41.8 | 0.00 | 0.00 | 0.00 | 74 | 1000.3 |
| 20260505070042 | 22 | 206 | 24.1 | 41.8 | 0.00 | 0.00 | 0.00 | 74 | 1000.3 |
| 20260505065526 | 22 | 185 | 20.9 | 45.1 | 0.00 | 0.00 | 0.00 | 75 | 1000.4 |
| 20260505065026 | 22 | 169 | 24.1 | 45.1 | 0.00 | 0.00 | 0.00 | 74 | 1000.4 |
| 20260505064537 | 22 | 163 | 20.9 | 43.5 | 0.00 | 0.00 | 0.00 | 75 | 1000.4 |
| 20260505064027 | 22 | 182 | 20.9 | 43.5 | 0.00 | 0.00 | 0.00 | 75 | 1000.4 |
| 20260505063527 | 22 | 219 | 22.5 | 46.7 | 0.00 | 0.00 | 0.00 | 74 | 1000.4 |
| 20260505063046 | 22 | 154 | 24.1 | 46.7 | 0.00 | 0.00 | 0.00 | 74 | 1000.5 |
| 20260505062526 | 22 | 189 | 24.1 | 46.7 | 0.00 | 0.00 | 0.00 | 74 | 1000.5 |
| 20260505062031 | 22 | 180 | 27.4 | 46.7 | 0.00 | 0.00 | 0.00 | 74 | 1000.7 |
| 20260505061545 | 22 | 188 | 20.9 | 46.7 | 0.00 | 0.00 | 0.00 | 74 | 1000.7 |
| 20260505061031 | 22 | 175 | 24.1 | 41.8 | 0.00 | 0.00 | 0.00 | 74 | 1000.8 |
| 20260505060526 | 22 | 212 | 22.5 | 35.4 | 0.00 | 0.00 | 0.00 | 74 | 1000.9 |
| 20260505060042 | 22 | 165 | 22.5 | 35.4 | 0.00 | 0.00 | 0.00 | 74 | 1000.9 |
| 20260505055528 | 22 | 186 | 22.5 | 35.4 | 0.00 | 0.00 | 0.00 | 74 | 1000.9 |
| 20260505055026 | 22 | 186 | 19.3 | 37.0 | 0.00 | 0.00 | 0.00 | 74 | 1001.1 |
| 20260505054603 | 22 | 160 | 24.1 | 37.0 | 0.00 | 0.00 | 0.00 | 74 | 1001.1 |
| 20260505054028 | 22 | 148 | 17.7 | 38.6 | 0.00 | 0.00 | 0.00 | 74 | 1001.1 |
| 20260505053528 | 22 | 169 | 20.9 | 38.6 | 0.00 | 0.00 | 0.00 | 74 | 1001.2 |
| 20260505053046 | 22 | 185 | 19.3 | 37.0 | 0.00 | 0.00 | 0.00 | 74 | 1001.1 |
| 20260505052527 | 22 | 159 | 20.9 | 41.8 | 0.00 | 0.00 | 0.00 | 73 | 1001.2 |
| 20260505052028 | 22 | 198 | 19.3 | 41.8 | 0.00 | 0.00 | 0.00 | 73 | 1001.2 |
| 20260505051546 | 22 | 178 | 17.7 | 32.2 | 0.00 | 0.00 | 0.00 | 74 | 1001.3 |
| 20260505051028 | 22 | 191 | 20.9 | 35.4 | 0.00 | 0.00 | 0.00 | 74 | 1001.2 |
| 20260505050528 | 22 | 168 | 20.9 | 35.4 | 0.00 | 0.00 | 0.00 | 73 | 1001.1 |
| 20260505041548 | 22 | 148 | 20.9 | 33.8 | 0.00 | 0.00 | 0.00 | 73 | 1001.6 |
| 20260505041026 | 22 | 151 | 14.5 | 30.6 | 0.00 | 0.00 | 0.00 | 73 | 1001.7 |
| 20260505040528 | 22 | 163 | 19.3 | 38.6 | 0.00 | 0.00 | 0.00 | 73 | 1001.7 |
| 20260505040042 | 22 | 146 | 19.3 | 38.6 | 0.00 | 0.00 | 0.00 | 73 | 1001.7 |
| 20260505035526 | 22 | 180 | 17.7 | 30.6 | 0.00 | 0.00 | 0.00 | 73 | 1001.7 |
| 20260505035027 | 22 | 186 | 17.7 | 40.2 | 0.00 | 0.00 | 0.00 | 73 | 1001.7 |
| 20260505034544 | 22 | 168 | 20.9 | 40.2 | 0.00 | 0.00 | 0.00 | 73 | 1001.7 |
| 20260505034027 | 22 | 190 | 20.9 | 38.6 | 0.00 | 0.00 | 0.00 | 73 | 1001.6 |
| 20260505033527 | 22 | 179 | 16.1 | 32.2 | 0.00 | 0.00 | 0.00 | 73 | 1001.6 |
| 20260505033042 | 22 | 174 | 19.3 | 32.2 | 0.00 | 0.00 | 0.00 | 73 | 1001.6 |
| 20260505032527 | 22 | 151 | 17.7 | 32.2 | 0.00 | 0.00 | 0.00 | 73 | 1001.6 |
| 20260505032026 | 22 | 171 | 16.1 | 32.2 | 0.00 | 0.00 | 0.00 | 73 | 1001.6 |
| 20260505031542 | 22 | 198 | 19.3 | 30.6 | 0.00 | 0.00 | 0.00 | 73 | 1001.6 |
| 20260505031028 | 22 | 144 | 16.1 | 27.4 | 0.00 | 0.00 | 0.00 | 73 | 1001.5 |
| 20260505030528 | 22 | 163 | 16.1 | 27.4 | 0.00 | 0.00 | 0.00 | 73 | 1001.6 |
| 20260505030054 | 22 | 173 | 14.5 | 25.7 | 0.00 | 0.00 | 0.00 | 73 | 1001.6 |